[[{"header":{"parameterUnit":"m.s-1","parameterCategory":1,"la1":30.2991,"la2":30.254,"lo1":-89.0895,"lo2":-89.0444,"dy":0.0017,"dx":0.0017,"nx":28,"ny":28,"refTime":"2024-05-23T09:00:00:Z","depth":0,"parameterNumber":2,"parameterNumberName":"U-component_of_WINDS"},"data":[0,0,0,0,0,0,0,0,0,0,0,0,0,0,0,0,0,0,0,0,0,0,0,0,0,0,0,0,0,0,0,0,0,0,0,0,0,0,0,0,0,0,0,0,0,0,0,0,0,0,0,0,0,0,0,0,0,0,-2.0564,-2.0565,0,-2.0589,-2.0589,-2.059,-2.0574,-2.0573,-2.0572,-2.0571,-2.0597,-2.0598,-2.0599,0,0,0,0,0,0,0,0,0,0,0,0,0,-2.0503,-2.0504,-2.0564,-2.0565,-2.0565,-2.0589,-2.0589,-2.059,-2.0574,-2.0573,-2.0572,-2.0571,-2.0596,-2.0598,-2.0599,0,0,0,0,0,0,0,0,0,0,0,0,0,-2.0529,-2.0505,-2.0564,-2.056,-2.056,-2.0589,-2.059,-2.059,-2.0574,-2.0573,-2.0572,-2.0571,-2.0596,-2.0598,-2.06,-2.0635,0,0,-2.0606,-2.0607,0,0,0,0,0,0,0,0,-2.0528,-2.0531,-2.056,-2.056,-2.056,-2.0577,-2.0577,-2.0605,-2.0574,-2.0569,-2.0571,-2.057,-2.0591,-2.0593,-2.0601,-2.0636,-2.0637,-2.0606,-2.0607,-2.0608,-2.0609,0,0,0,0,0,0,0,-2.0526,-2.053,-2.0574,-2.0561,-2.0561,-2.0557,-2.0559,-2.0582,-2.0586,-2.0569,-2.0568,-2.0571,-2.0591,-2.0599,-2.0601,-2.0637,-2.0606,-2.0608,-2.0609,-2.061,-2.0702,-2.0704,0,0,0,0,0,0,-2.0524,-2.0529,-2.0573,-2.0575,-2.0541,-2.0559,-2.0561,-2.0573,-2.0585,-2.0586,-2.0572,-2.057,-2.0596,-2.0599,-2.0602,-2.0643,-2.0608,-2.061,-2.0611,-2.0701,-2.0703,-2.0704,0,0,0,0,0,0,-2.0523,-2.0529,-2.0572,-2.0552,-2.0557,-2.0561,-2.0574,-2.0574,-2.0582,-2.0588,-2.0588,-2.0579,-2.0595,-2.0599,-2.0627,-2.0644,-2.0611,-2.0613,-2.07,-2.0702,-2.0703,-2.0727,0,0,0,0,0,0,-2.0521,-2.0528,-2.0541,-2.0552,-2.0558,-2.0597,-2.0575,-2.0575,-2.0585,-2.0583,-2.0595,-2.0596,-2.0594,-2.0624,-2.0629,-2.0646,-2.0615,-2.0698,-2.0701,-2.0703,-2.0724,-2.0729,-2.0733,0,0,0,0,0,-2.0519,-2.0547,-2.0542,-2.0548,-2.0575,-2.0598,-2.0601,-2.0599,-2.0587,-2.06,-2.0604,-2.0595,-2.0641,-2.0627,-2.0632,-2.065,-2.0697,-2.07,-2.0703,-2.0722,-2.0728,-2.0733,0,0,0,0,0,0,-2.0538,-2.0548,-2.0543,-2.0575,-2.0586,-2.0595,-2.0612,-2.0606,-2.062,-2.0617,-2.0614,-2.0617,-2.0646,-2.0651,-2.0634,-2.0685,-2.0667,-2.0671,-2.068,-2.0686,-2.069,-2.0688,-2.0616,0,0,0,0,0,-2.0546,-2.0564,-2.0572,-2.06,-2.0605,-2.0608,-2.0618,-2.0615,-2.0626,-2.0631,-2.0637,-2.0647,-2.0664,-2.0676,-2.0692,-2.0725,-2.0727,-2.0741,-2.0745,-2.0749,-2.0752,-2.077,-2.0776,-2.0713,-2.0713,-2.0713,0,0,-2.0563,-2.0571,-2.0582,-2.0604,-2.0612,-2.063,-2.0612,-2.0632,-2.0646,-2.0634,-2.066,-2.0665,-2.0677,-2.0708,-2.0722,-2.0713,-2.077,-2.0752,-2.0755,-2.0756,-2.0773,-2.0779,-2.0784,-2.0715,-2.0715,-2.0714,0,0,-2.0602,-2.061,-2.0634,-2.0642,-2.0655,-2.0656,-2.0662,-2.0672,-2.0675,-2.0702,-2.0693,-2.0709,-2.0739,-2.0747,-2.0756,-2.0799,-2.0791,-2.0804,-2.0827,-2.0844,-2.0849,-2.0854,-2.0868,-2.0874,-2.0808,-2.0808,-2.0808,0,-2.0621,-2.0649,-2.0647,-2.0668,-2.0677,-2.0668,-2.0691,-2.07,-2.0717,-2.0724,-2.0714,-2.075,-2.0758,-2.079,-2.0801,-2.0808,-2.0814,-2.0802,-2.0849,-2.0853,-2.0857,-2.0871,-2.0877,-2.0809,-2.0809,-2.0809,-2.0809,0,-2.0671,-2.0691,-2.0708,-2.0725,-2.0737,-2.0759,-2.076,-2.0772,-2.0769,-2.0772,-2.0799,-2.0807,-2.0825,-2.0833,-2.083,-2.0865,-2.0859,-2.0849,-2.0831,-2.0864,-2.0878,-2.0883,-2.0811,-2.0811,-2.081,-2.081,0,0,-2.0723,-2.0738,-2.0745,-2.0752,-2.0765,-2.078,-2.0802,-2.0819,-2.0829,-2.0842,-2.086,-2.0885,-2.0876,-2.0885,-2.0883,-2.0899,-2.0932,-2.0887,-2.0887,-2.0895,-2.0971,-2.0977,-2.0984,-2.0927,-2.0928,-2.0929,-2.0969,0,-2.0763,-2.0801,-2.08,-2.0835,-2.0853,-2.0844,-2.0863,-2.0873,-2.0877,-2.0892,-2.0895,-2.0913,-2.09,-2.0906,-2.0921,-2.0925,-2.0947,-2.0922,-2.0944,-2.0944,-2.094,-2.0991,-2.0998,-2.1036,-2.0975,-2.0976,-2.0976,0,-2.0814,-2.0828,-2.0865,-2.0876,-2.0883,-2.09,-2.0916,-2.0931,-2.0942,-2.0943,-2.0954,-2.095,-2.0972,-2.0954,-2.0984,-2.0967,-2.0976,-2.0979,-2.0981,-2.0982,-2.0962,-2.0993,-2.1047,-2.1053,-2.0984,-2.0984,-2.0983,0,-2.0848,-2.0876,-2.0901,-2.0908,-2.0921,-2.0933,-2.0939,-2.0949,-2.0959,-2.0973,-2.098,-2.0996,-2.1005,-2.1017,-2.1017,-2.1004,-2.1048,-2.103,-2.1049,-2.1049,-2.1058,-2.1057,-2.1114,-2.1065,-2.1065,-2.1065,-2.1065,0,-2.0892,-2.0915,-2.0916,-2.0932,-2.0958,-2.0956,-2.0982,-2.0986,-2.0995,-2.1012,-2.1006,-2.1021,-2.1021,-2.1037,-2.1037,-2.1062,-2.1066,-2.1067,-2.1067,-2.1067,-2.1067,-2.1073,-2.107,-2.1066,-2.1066,-2.1066,-2.1065,0,-2.0933,-2.0935,-2.0963,-2.0973,-2.0976,-2.0994,-2.1002,-2.1017,-2.102,-2.1041,-2.1046,-2.105,-2.1068,-2.107,-2.1091,-2.1091,-2.1121,-2.1118,-2.1117,-2.1117,-2.1135,-2.1133,-2.1197,-2.1205,-2.1151,-2.1152,-2.1152,0,-2.0961,-2.0978,-2.099,-2.1001,-2.1007,-2.1024,-2.1035,-2.1034,-2.1045,-2.1059,-2.1073,-2.109,-2.1104,-2.1134,-2.1139,-2.1155,-2.1152,-2.1174,-2.1155,-2.1155,-2.1152,-2.1151,-2.1152,-2.1177,-2.1178,-2.1178,-2.1179,0,-2.101,-2.101,-2.1025,-2.1041,-2.1054,-2.1066,-2.1078,-2.1087,-2.1087,-2.11,-2.1119,-2.113,-2.1151,-2.1169,-2.1185,-2.1191,-2.1185,-2.1185,-2.119,-2.119,-2.1189,-2.1189,-2.1127,-2.1183,-2.1183,-2.1182,-2.1182,-2.1182,-2.1045,-2.106,-2.107,-2.1088,-2.1096,-2.1107,-2.1121,-2.1126,-2.1141,-2.1159,-2.1158,-2.1178,-2.1189,-2.121,-2.1217,-2.1233,-2.1226,-2.1233,-2.1235,-2.1237,-2.1238,-2.1187,-2.1236,-2.1236,-2.1236,-2.1235,-2.1235,0,-2.1093,-2.1099,-2.1115,-2.1131,-2.1145,-2.1138,-2.1151,-2.1162,-2.118,-2.1191,-2.1205,-2.1226,-2.1243,-2.125,-2.1266,-2.1278,-2.1275,-2.1282,-2.1281,-2.1282,-2.1244,-2.1238,-2.1283,-2.1283,-2.1283,-2.1283,-2.1283,-2.1283,-2.112,-2.1145,-2.1146,-2.1175,-2.1181,-2.1201,-2.1209,-2.1218,-2.1227,-2.1251,-2.1265,-2.1269,-2.1278,-2.1295,-2.131,-2.1311,-2.1317,-2.1325,-2.1325,-2.129,-2.1285,-2.128,-2.1274,-2.1327,-2.1327,-2.1362,-2.1362,-2.1362]},{"header":{"parameterUnit":"m.s-1","parameterCategory":1,"la1":30.2991,"la2":30.254,"lo1":-89.0895,"lo2":-89.0444,"dy":0.0017,"dx":0.0017,"nx":28,"ny":28,"refTime":"2024-05-23T09:00:00:Z","depth":0,"parameterNumber":3,"parameterNumberName":"V-component_of_WINDS"},"data":[0,0,0,0,0,0,0,0,0,0,0,0,0,0,0,0,0,0,0,0,0,0,0,0,0,0,0,0,0,0,0,0,0,0,0,0,0,0,0,0,0,0,0,0,0,0,0,0,0,0,0,0,0,0,0,0,0,0,4.8606,4.8606,0,4.8653,4.8654,4.8654,4.8595,4.8593,4.8591,4.8589,4.8634,4.8638,4.8641,0,0,0,0,0,0,0,0,0,0,0,0,0,4.8459,4.8462,4.8605,4.8606,4.8607,4.8653,4.8654,4.8655,4.8595,4.8593,4.859,4.8588,4.8633,4.8637,4.8641,0,0,0,0,0,0,0,0,0,0,0,0,0,4.8517,4.8463,4.8605,4.8583,4.8581,4.8653,4.8654,4.8655,4.8596,4.8593,4.8589,4.8586,4.8632,4.8637,4.8642,4.8737,0,0,4.8656,4.8659,0,0,0,0,0,0,0,0,4.8513,4.8522,4.8586,4.8585,4.8583,4.8615,4.8619,4.8682,4.8597,4.859,4.8589,4.8585,4.863,4.8635,4.8651,4.8739,4.8741,4.8657,4.866,4.8662,4.8663,0,0,0,0,0,0,0,4.851,4.852,4.8624,4.8587,4.8585,4.8569,4.8574,4.8631,4.8628,4.8591,4.8586,4.8593,4.8629,4.8647,4.8652,4.8742,4.8657,4.8661,4.8664,4.8666,4.891,4.8913,0,0,0,0,0,0,4.8509,4.8517,4.8623,4.8626,4.854,4.8575,4.858,4.8608,4.8627,4.8627,4.8596,4.859,4.864,4.8646,4.8653,4.8766,4.8662,4.8666,4.8669,4.8906,4.8911,4.8915,0,0,0,0,0,0,4.8506,4.8519,4.8621,4.857,4.8582,4.8581,4.8613,4.8611,4.8628,4.8631,4.863,4.8615,4.8638,4.8646,4.8717,4.8767,4.8669,4.8673,4.8902,4.8908,4.8913,4.8993,0,0,0,0,0,0,4.8502,4.8518,4.8555,4.8572,4.8585,4.8685,4.8616,4.8614,4.8637,4.863,4.8649,4.8648,4.8636,4.871,4.8722,4.8772,4.8677,4.8898,4.8905,4.8911,4.8986,4.9001,4.9013,0,0,0,0,0,4.8497,4.8575,4.8557,4.857,4.8631,4.8688,4.8695,4.868,4.8642,4.8678,4.868,4.8648,4.876,4.8718,4.873,4.8783,4.8894,4.8903,4.891,4.898,4.8998,4.9013,0,0,0,0,0,0,4.8563,4.8577,4.8557,4.8643,4.8665,4.8678,4.8724,4.87,4.8732,4.8724,4.8703,4.8707,4.8782,4.8789,4.8742,4.8876,4.882,4.8831,4.8869,4.8886,4.8899,4.8896,4.8681,0,0,0,0,0,4.8588,4.8634,4.8643,4.8718,4.873,4.8725,4.8749,4.8736,4.8757,4.8765,4.8772,4.8793,4.8833,4.886,4.8896,4.8987,4.899,4.9029,4.9042,4.9054,4.9063,4.9112,4.9129,4.8941,4.8941,4.8941,0,0,4.864,4.8653,4.8683,4.8732,4.8747,4.8794,4.8733,4.8785,4.882,4.8773,4.884,4.8846,4.8868,4.8949,4.8985,4.8957,4.9116,4.9064,4.9073,4.9076,4.9122,4.9139,4.9155,4.8946,4.8945,4.8945,0,0,4.8758,4.8772,4.8837,4.8853,4.8878,4.8874,4.889,4.8906,4.8909,4.8976,4.8942,4.8982,4.9051,4.9068,4.9086,4.9211,4.9182,4.9223,4.9294,4.9341,4.9356,4.9369,4.9414,4.943,4.9233,4.9233,4.9233,0,4.8818,4.8889,4.8872,4.8928,4.895,4.8911,4.8975,4.8992,4.9027,4.9042,4.9011,4.9097,4.9109,4.9193,4.9224,4.924,4.9256,4.9221,4.9356,4.9368,4.938,4.9423,4.944,4.9238,4.9237,4.9237,4.9236,0,4.8962,4.9012,4.9061,4.9097,4.9125,4.9184,4.9175,4.9205,4.9189,4.9189,4.9258,4.9271,4.931,4.9328,4.9313,4.9411,4.9393,4.9359,4.9303,4.9404,4.9443,4.9459,4.9245,4.9243,4.9242,4.9241,0,0,4.9124,4.915,4.9169,4.9185,4.9209,4.9246,4.9303,4.9343,4.9369,4.9394,4.9441,4.95,4.9469,4.949,4.9475,4.9517,4.9615,4.9478,4.9478,4.9503,4.9724,4.975,4.9769,4.9597,4.96,4.9602,4.9722,0,4.9243,4.9344,4.933,4.9427,4.9472,4.9435,4.9485,4.9505,4.9506,4.9543,4.9543,4.9586,4.9542,4.9554,4.9593,4.9595,4.9659,4.9586,4.964,4.9642,4.9636,4.979,4.9817,4.993,4.9738,4.974,4.9742,0,4.9395,4.9427,4.9528,4.9546,4.9564,4.9609,4.9644,4.9681,4.9702,4.97,4.9723,4.9701,4.9758,4.9701,4.9778,4.9728,4.9749,4.9754,4.9757,4.9762,4.9699,4.9799,4.9966,4.9983,4.9766,4.9764,4.9763,0,4.9503,4.9571,4.9641,4.9655,4.9677,4.971,4.972,4.9738,4.9763,4.9793,4.9808,4.9844,4.9864,4.9891,4.988,4.9839,4.996,4.9901,4.9959,4.9959,4.9986,4.9985,5.0159,4.9999,4.9999,4.9999,4.9998,0,4.9637,4.9701,4.969,4.9733,4.9803,4.9786,4.9855,4.9861,4.9877,4.992,4.9889,4.993,4.9912,4.9951,4.9942,5.0008,5.0016,5.0016,5.0013,5.0019,5.0019,5.0033,5.0025,5.0003,5.0002,5.0001,5.0001,0,4.977,4.9765,4.9839,4.9854,4.9859,4.991,4.9922,4.9962,4.996,5.0014,5.0026,5.0024,5.0068,5.0059,5.0107,5.0101,5.0184,5.0171,5.0177,5.0174,5.0233,5.0227,5.0422,5.0447,5.0271,5.0272,5.0274,0,4.9857,4.9905,4.9925,4.9952,4.9965,5.0009,5.0034,5.0019,5.0046,5.0074,5.011,5.0152,5.0185,5.0257,5.0259,5.0296,5.0284,5.0349,5.0289,5.0294,5.0285,5.0283,5.0287,5.0362,5.0364,5.0365,5.0367,0,5.001,5.0006,5.0044,5.0081,5.0112,5.0141,5.0166,5.0189,5.0176,5.0208,5.0254,5.028,5.0329,5.0371,5.0405,5.0415,5.0389,5.0386,5.0401,5.0408,5.041,5.041,5.021,5.0381,5.038,5.0379,5.0378,5.0377,5.0123,5.0164,5.0185,5.0229,5.0246,5.0271,5.0309,5.0313,5.0351,5.0391,5.0379,5.0431,5.045,5.0494,5.0507,5.0547,5.0522,5.0544,5.055,5.0556,5.0563,5.0403,5.0553,5.0553,5.0552,5.0552,5.0551,0,5.0276,5.0288,5.0328,5.0365,5.0399,5.0372,5.0398,5.0428,5.0475,5.0495,5.0528,5.0581,5.0621,5.0626,5.0664,5.0695,5.0684,5.0705,5.0703,5.0706,5.0583,5.0566,5.0714,5.0714,5.0714,5.0714,5.0714,5.0714,5.036,5.0428,5.0426,5.0503,5.0513,5.0565,5.0583,5.0605,5.0621,5.0681,5.0715,5.0718,5.0733,5.0772,5.0807,5.0807,5.0823,5.0849,5.0845,5.0731,5.0714,5.0699,5.0683,5.0853,5.0853,5.0965,5.0966,5.0967]}]]